TimeEDT,TemperatureF,Dew PointF,Humidity,Sea Level PressureIn,VisibilityMPH,Wind Direction,Wind SpeedMPH,Gust SpeedMPH,PrecipitationIn,Events,Conditions,WindDirDegrees,DateUTC
12:51 AM,23.0,16.0,74,30.67,10.0,Calm,Calm,-,N/A,,Clear,0,2013-04-22 04:51:00
1:51 AM,18.0,14.0,84,30.67,10.0,Calm,Calm,-,N/A,,Clear,0,2013-04-22 05:51:00
2:51 AM,16.0,14.0,92,30.66,10.0,Calm,Calm,-,N/A,,Clear,0,2013-04-22 06:51:00
3:51 AM,16.0,12.9,88,30.66,10.0,Calm,Calm,-,N/A,,Clear,0,2013-04-22 07:51:00
4:51 AM,16.0,12.9,88,30.66,10.0,Calm,Calm,-,N/A,,Clear,0,2013-04-22 08:51:00
5:51 AM,15.1,12.9,91,30.67,10.0,Calm,Calm,-,N/A,,Clear,0,2013-04-22 09:51:00
6:51 AM,18.0,15.1,88,30.68,10.0,Calm,Calm,-,N/A,,Clear,0,2013-04-22 10:51:00
7:51 AM,30.0,21.0,69,30.67,10.0,Calm,Calm,-,N/A,,Clear,0,2013-04-22 11:51:00
8:51 AM,35.1,19.9,54,30.68,10.0,SW,3.5,-,N/A,,Clear,220,2013-04-22 12:51:00
9:51 AM,43.0,14.0,31,30.65,10.0,South,10.4,-,N/A,,Clear,190,2013-04-22 13:51:00
10:51 AM,44.1,15.1,31,30.65,10.0,South,8.1,-,N/A,,Clear,170,2013-04-22 14:51:00
11:51 AM,46.9,15.1,28,30.64,10.0,SSW,10.4,-,N/A,,Clear,210,2013-04-22 15:51:00
12:51 PM,48.0,15.1,27,30.61,10.0,South,11.5,18.4,N/A,,Clear,190,2013-04-22 16:51:00
1:51 PM,50.0,14.0,24,30.59,10.0,South,10.4,20.7,N/A,,Clear,190,2013-04-22 17:51:00
2:51 PM,52.0,12.9,21,30.55,10.0,Variable,6.9,-,N/A,,Clear,0,2013-04-22 18:51:00
3:51 PM,53.1,8.1,16,30.52,10.0,South,10.4,17.3,N/A,,Clear,180,2013-04-22 19:51:00
4:51 PM,53.1,9.0,17,30.51,10.0,SSW,10.4,-,N/A,,Clear,210,2013-04-22 20:51:00
5:51 PM,52.0,12.9,21,30.51,10.0,South,11.5,17.3,N/A,,Clear,180,2013-04-22 21:51:00
6:51 PM,50.0,12.9,23,30.51,10.0,South,12.7,-,N/A,,Clear,190,2013-04-22 22:51:00
7:51 PM,43.0,16.0,34,30.50,10.0,South,4.6,-,N/A,,Clear,190,2013-04-22 23:51:00
8:51 PM,33.1,18.0,54,30.51,10.0,Calm,Calm,-,N/A,,Clear,0,2013-04-23 00:51:00
9:51 PM,27.0,19.0,72,30.50,10.0,Calm,Calm,-,N/A,,Clear,0,2013-04-23 01:51:00
10:51 PM,28.0,18.0,66,30.48,10.0,Calm,Calm,-,N/A,,Clear,0,2013-04-23 02:51:00
11:51 PM,30.9,19.0,61,30.47,10.0,Calm,Calm,-,N/A,,Clear,0,2013-04-23 03:51:00